www.pogodaiklimat.ru

Погода и климат >> Архив погоды >> Норвегия >> Свальбард аэропорт


ПОГОДА в Свальбард аэропорту

  • Прогноз погоды в Свальбард аэропорту
  • Монитор погоды в Свальбард аэропорту

АРХИВ ПОГОДЫ в Свальбард аэропорту

Время (UTC), дата Ветер
(напр.,м/с)
 
Видим.   Явления Облачность Т
(С)
Тd
(С)
f
(%)
Тe
(С)
Тes
(С)
Комфортность P
(гПа)
Po
(гПа)
Тmin
(С)
Tmax
(С)
R
(мм)
R24
(мм)
S
(см)
07 12.08 СВ 3
{4}
н/о н/о +6.2 -2.7 53 +4 +4 1015.6 1012.1
08 12.08 С 3
{6}
н/о н/о +5.8 -3.3 52 +3 +3 1015.7 1012.2
09 12.08 С 2
{4}
>70 км 8/1 1000 м
[Sc Ac lent Ci fib]
+6.2 -2.9 52 +4 +7 1015.7 1012.1
10 12.08 З 2
{4}
н/о н/о +5.8 -2.6 55 +4 +4 1015.7 1012.1
11 12.08 СЗ 2
{3}
н/о н/о +6.5 -2.2 54 +5 +5 1015.5 1011.9
12 12.08 СЗ 2
{5}
>70 км 6/1 1000 м
[Cu hum Ac lent Ci]
+6.8 -1.4 56 +5 +8 1015.4 1011.8
13 12.08 З 2
{4}
н/о н/о +6.5 -1.2 58 +5 +5 1015.1 1011.6
14 12.08 СЗ 2
{4}
н/о н/о +6.9 -0.8 58 +5 +5 1014.8 1011.3
15 12.08 СЗ 2
{5}
>70 км 6/5 600 м
[Sc Ac lent Ci fib]
+6.1 -0.8 61 +4 +5 1014.7 1011.2
16 12.08 СЗ 1
{3}
н/о н/о +6.0 -1.0 61 +5 +5 1014.5 1010.9
17 12.08 СЗ 2
{4}
н/о н/о +6.0 -0.7 62 +4 +4 1014.4 1010.8
18 12.08 СЗ 2
{5}
н/о н/о +5.9 -0.8 62 +4 +4 1014.3 1010.7 +5.3 +7.2
19 12.08
{4}
н/о н/о +5.9 -0.8 62 1014.1 1010.5
20 12.08 С 1
{4}
н/о н/о +4.9 -1.0 66 +4 +4 1014.0 1010.5
21 12.08 З 1
{2}
>70 км 6/3 1000 м
[Sc Ac lent Ci fib]
+4.6 -0.8 68 +4 +4 1013.9 1010.3
22 12.08
{3}
н/о н/о +3.7 -1.2 70 1013.9 1010.3
23 12.08 С 3
{4}
н/о н/о +3.9 -1.1 70 0 0 1013.6 1010.1
00 13.08 З 1
{4}
>70 км 5/1 1000 м
[Sc Ac lent Ci fib]
+3.5 -1.2 71 +2 +2 1013.6 1010.1
01 13.08 СВ 1
{3}
н/о н/о +3.7 -1.3 70 +3 +3 1013.5 1009.9
02 13.08 ЮЗ 1
{2}
н/о н/о +4.4 -0.9 68 +3 +3 1013.1 1009.5
03 13.08 С 1
{3}
>70 км 5/1 1000 м
[Sc Ac lent Ci fib]
+5.1 -1.1 64 +4 +5 1012.9 1009.3
04 13.08 С 2
{3}
н/о н/о +5.6 -0.9 63 +4 +4 1012.5 1008.9
05 13.08 С 1
{2}
н/о н/о +5.4 -0.7 65 +5 +5 1012.2 1008.7
06 13.08 С 1
{3}
>70 км 5/1 1000 м
[Sc Ac trans]
+5.0 -1.0 65 +4 +6 1012.0 1008.5 +3.3 +6.3
07 13.08 СЗ 1
{3}
н/о н/о +5.5 -0.6 65 +5 +5 1011.8 1008.2
08 13.08 ЮЗ 2
{3}
н/о н/о +5.8 -0.1 66 +4 +4 1011.5 1008.0
09 13.08 З 3
{6}
65 км 9/1 1000 м
[Sc Ac As]
+6.1 -0.2 64 +3 +4 1011.4 1007.9
10 13.08 З 3
{4}
н/о н/о +6.0 -0.5 63 +3 +3 1011.1 1007.6
11 13.08 З 4
{5}
н/о н/о +6.5 +0.2 64 +3 +3 1010.8 1007.3
12 13.08 З 4
{6}
65 км 9/1 1000 м
[Sc Ac As]
+7.1 -0.3 59 +4 +5 1010.6 1007.1
13 13.08 З 5
{7}
н/о н/о +7.0 -0.3 60 +3 +3 1010.2 1006.7
14 13.08 З 7
{8}
н/о н/о +8.6 -1.2 50 +5 +5 1009.6 1006.1
15 13.08 ЮЗ 7
{8}
35 км 3/1 1000 м
[Sc Ac As]
+8.7 -1.3 49 +5 +6 1009.0 1005.5
16 13.08 ЮЗ 6
{8}
н/о н/о +8.4 -0.8 52 +5 +5 1008.9 1005.4
17 13.08 З 5
{8}
н/о н/о +7.8 +0.8 61 +4 +4 1008.7 1005.2
18 13.08 З 7
{9}
65 км 3/1 600 м
[Sc Ac lent]
+7.1 +1.4 67 +3 +3 1008.5 1005.0 +5.0 +9.1
19 13.08 З 8
{9}
н/о н/о +6.9 -0.3 60 +2 +2 1008.3 1004.8
20 13.08 З 7
{10}
н/о н/о +6.2 -1.0 60 +2 +2 1008.2 1004.7
21 13.08 З 8
{12}
60 км 8/3 1000 м
[Sc Ac lent Ci fib]
+6.3 -0.3 63 +1 +1 1007.9 1004.4
22 13.08 ЮЗ 8
{10}
н/о н/о +6.1 -0.2 64 +1 +1 1007.4 1003.8
23 13.08 ЮЗ 11
{13}
н/о н/о +6.2 +1.6 72 0 0 1006.7 1003.2
00 14.08 ЮЗ 11
{14}
55 км 9/8 300 м
[Sc Ac lent Ci fib]
+6.1 +2.5 78 -0 -0 1006.0 1002.4
01 14.08 ЮЗ 13
{16}
н/о н/о +6.3 +2.1 74 -0 -0 1005.2 1001.7
02 14.08 ЮЗ 13
{17}
н/о н/о +5.6 +1.7 76 -1 -1 1005.0 1001.5
03 14.08 ЮЗ 13
{16}
55 км 9/9 300 м
[Sc]
+5.3 +1.5 76 -2 -2 1004.3 1000.8
04 14.08 ЮЗ 12
{16}
н/о н/о +4.8 +1.1 77 -2 -2 1003.9 1000.3
05 14.08 З 11
{15}
н/о н/о +4.5 +1.4 80 -2 -2 1003.9 1000.4
06 14.08 З 8
{17}
40 км в посл. час дождь 9/9 300 м
[Sc]
+4.3 +0.6 77 -2 -2 1003.6 1000.1 +4.3 +7.2 0.0
07 14.08 З 9
{11}
н/о н/о +4.3 -0.1 73 -2 -2 1003.6 1000.1
08 14.08 З 7
{10}
н/о н/о +4.4 -1.0 68 -1 -1 1003.3 999.7
09 14.08 З 8
{9}
55 км осадки на расстоянии 9/9 300 м
[Sc]
+4.7 -0.9 67 -1 -1 1003.0 999.5
10 14.08 З 8
{10}
н/о н/о +5.0 -1.0 65 -1 -1 1002.9 999.4
11 14.08 З 8
{10}
н/о н/о +4.8 -1.3 65 -1 -1 1002.9 999.4
12 14.08 З 8
{11}
55 км 9/9 600 м
[Sc]
+4.6 -0.7 68 -1 -1 1002.5 999.0
13 14.08 З 9
{11}
н/о н/о +4.5 -0.2 72 -2 -2 1002.3 998.8
14 14.08 З 9
{12}
н/о н/о +4.7 +0.2 73 -1 -1 1002.0 998.5
15 14.08 З 8
{10}
55 км осадки на расстоянии 9/9 600 м
[Sc]
+4.4 0.0 73 -1 -1 1001.7 998.2
16 14.08 ЮЗ 8
{10}
н/о н/о +4.0 +0.1 76 -2 -2 1001.5 998.0
17 14.08 З 9
{11}
н/о н/о +3.8 +0.1 77 -3 -3 1001.0 997.4
18 14.08 З 8
{12}
н/о н/о +3.2 +0.9 85 -3 -3 1000.6 997.1 +3.2 +5.2
19 14.08 ЮЗ 5
{9}
н/о н/о +2.3 +0.4 87 -3 -3 1000.3 996.8
20 14.08 ЮЗ 5
{7}
н/о н/о +3.3 +0.4 81 -2 -2 999.9 996.3
21 14.08 ЮЗ 4
{7}
55 км дождь 9/9 300 м
[Sc]
+2.8 +0.9 87 -2 -2 999.7 996.2
22 14.08 ЮЗ 4
{6}
н/о н/о +2.9 +0.8 86 -2 -2 999.4 995.9
23 14.08 ЮЗ 2
{4}
н/о н/о +2.7 +0.6 86 -0 -0 999.2 995.7
00 15.08 В 3
{9}
55 км осадки на расстоянии 9/9 300 м
[Sc]
+2.5 +0.7 88 -2 -2 999.1 995.5
01 15.08 В 3
{4}
н/о н/о +2.5 +0.7 88 -2 -2 998.9 995.4
02 15.08 В 2
{4}
н/о н/о +2.6 +0.9 89 -1 -1 998.9 995.3
03 15.08 Ю 3
{5}
55 км 9/9 300 м
[Sc]
+2.8 +0.9 87 -1 -1 998.7 995.2
04 15.08 ЮЗ 2
{4}
н/о н/о +3.0 +0.7 85 0 0 998.5 995.0
05 15.08 В 2
{3}
н/о н/о +3.4 +0.7 82 +1 +1 998.4 994.9
06 15.08 штиль 0
{5}
65 км 9/4 600 м
[Sc Ac As]
+3.9 +0.4 78 +3 +4 998.3 994.8 +2.2 +3.9 1
07 15.08 ЮЗ 1
{3}
н/о н/о +3.8 -0.1 76 +3 +3 998.2 994.7
08 15.08 ЮЗ 3
{4}
н/о н/о +3.9 -1.0 70 0 0 998.1 994.6
09 15.08 ЮЗ 3
{6}
20 км слаб. дождь 9/9 300 м
[Sc]
+3.8 -0.9 71 0 +1 998.2 994.7
10 15.08 ЮЗ 4
{6}
н/о н/о +3.9 -0.7 72 -0 -0 998.0 994.5
11 15.08 ЮЗ 3
{6}
н/о н/о +3.8 +0.2 77 0 0 997.9 994.4
12 15.08 ЮЗ 4
{7}
20 км слаб. дождь 9/9 300 м
[St]
+3.5 +0.7 82 -1 -1 997.7 994.1
13 15.08 ЮЗ 4
{7}
н/о н/о +4.2 +0.2 75 0 0 997.6 994.1
14 15.08 ЮЗ 5
{8}
н/о н/о +3.7 +0.7 81 -1 -1 997.6 994.1
15 15.08 ЮЗ 5
{8}
25 км слаб. дождь 9/9 300 м
[Sc]
+3.9 +0.4 78 -1 -1 997.5 994.0
16 15.08 ЮЗ 4
{10}
н/о н/о +2.3 +0.4 87 -3 -3 997.8 994.3
17 15.08 ЮЗ 6
{9}
н/о н/о +1.9 -0.3 85 -4 -4 998.0 994.5
18 15.08 З 4
{10}
20 км слаб. дождь со снегом 9/9 300 м
[Sc]
+2.8 -1.2 75 -2 -2 997.9 994.4 +1.7 +4.4
19 15.08 ЮЗ 4
{8}
н/о н/о +2.0 -1.2 79 -3 -3 997.9 994.4
20 15.08 СЗ 3
{9}
н/о н/о +2.7 0.0 82 -1 -1 998.0 994.5
21 15.08 В 2
{5}
30 км слаб. дождь со снегом 9/9 300 м
[Sc]
+1.2 -0.2 90 -2 -2 998.2 994.6
22 15.08 В 3
{4}
н/о н/о +0.4 -0.5 94 -4 -4 998.5 994.9
23 15.08 ЮЗ 2
{3}
н/о н/о +0.7 -0.3 93 -3 -3 998.8 995.2
00 16.08 ЮВ 2
{9}
20 км слаб. снег {дождь} 9/9 600 м
[Sc]
+0.7 -0.1 94 -3 -3 999.0 995.4
01 16.08 ЮВ 2
{2}
н/о н/о +0.8 -0.3 92 -3 -3 999.2 995.6
02 16.08 ЮВ 2
{2}
н/о н/о +0.6 -0.4 93 -3 -3 999.2 995.7
03 16.08 ЮВ 1
{2}
8000 м слаб. снег {дождь} 9/9 300 м
[Sc]
+0.8 -0.3 92 -1 -1 999.3 995.7
04 16.08 штиль 0
{1}
н/о н/о +1.0 -0.3 91 -0 -0 999.4 995.8
05 16.08 штиль 0
{1}
н/о н/о +1.1 -0.1 92 -0 -0 999.6 996.1
06 16.08 ЮЗ 2
{3}
40 км {снег} 9/9 100 м
[Sc]
+1.7 -0.1 88 -2 -1 999.6 996.1 +0.3 +2.8 12 <0.5
07 16.08 Ю 1
{3}
н/о н/о +2.3 +0.3 87 +1 +1 999.8 996.3
08 16.08 Ю 2
{3}
н/о н/о +3.3 -0.1 78 0 0 999.8 996.3
09 16.08 ЮВ 2
{3}
>70 км 4/4 600 м
[Sc Ac lent]
+4.0 -0.5 72 +1 +3 999.9 996.3
10 16.08 ЮЗ 2
{3}
н/о н/о +4.8 -0.6 68 +2 +2 1000.0 996.4
11 16.08 Ю 3
{4}
н/о н/о +4.6 -0.8 68 +1 +1 1000.0 996.5
12 16.08 ЮЗ 3
{4}
>70 км 6/5 600 м
[Sc Ac trans Ci fib]
+4.9 -1.2 65 +2 +3 1000.1 996.6
13 16.08 ЮЗ 5
{8}
н/о н/о +4.5 -0.6 69 0 0 999.9 996.4
14 16.08 ЮЗ 6
{9}
н/о н/о +4.8 -0.4 69 -0 -0 999.6 996.1
15 16.08 ЮЗ 9
{12}
70 км осадки на расстоянии 8/5 600 м
[Sc Ac lent Ci fib]
+4.5 +0.1 73 -2 -2 999.2 995.7
16 16.08 ЮЗ 9
{14}
н/о н/о +4.1 +0.5 77 -2 -2 999.3 995.8
17 16.08 ЮЗ 7
{11}
н/о н/о +3.9 0.0 76 -2 -2 999.5 995.9
18 16.08 ЮЗ 7
{14}
40 км слаб. дождь 9/9 300 м
[Sc]
+3.8 -0.1 76 -2 -2 999.4 995.9 +1.6 +5.3
19 16.08 ЮЗ 9
{13}
н/о н/о +3.2 0.0 80 -4 -4 999.5 996.0
20 16.08 ЮЗ 10
{13}
н/о н/о +3.4 +0.4 81 -4 -4 999.5 996.0
21 16.08 ЮЗ 10
{13}
60 км {дождь} 9/9 300 м
[Sc]
+3.6 +0.1 78 -3 -3 999.5 996.0
22 16.08 З 11
{13}
н/о н/о +3.4 +0.7 82 -4 -4 999.9 996.4
23 16.08 ЮЗ 10
{12}
н/о н/о +3.4 +0.4 81 -4 -4 1000.0 996.5
00 17.08 ЮЗ 10
{13}
30 км слаб. дождь 9/9 300 м
[Sc]
+3.3 +0.2 80 -4 -4 1000.0 996.5
01 17.08 ЮЗ 8
{12}
н/о н/о +3.3 +0.7 83 -3 -3 1000.4 996.9
02 17.08 ЮЗ 9
{12}
н/о н/о +3.1 +0.1 81 -4 -4 1000.7 997.2
03 17.08 ЮЗ 8
{12}
55 км {дождь} 9/9 300 м
[Sc]
+3.0 0.0 81 -3 -3 1001.1 997.6
04 17.08 З 8
{11}
н/о н/о +3.3 +0.1 80 -3 -3 1001.3 997.8
05 17.08 ЮЗ 7
{10}
н/о н/о +3.4 -0.6 75 -2 -2 1001.3 997.7
06 17.08 ЮЗ 7
{12}
н/о н/о +3.8 -0.2 75 -2 -2 1001.6 998.1 +2.9 +3.9
07 17.08 ЮЗ 5
{9}
н/о н/о +4.1 -0.1 74 -1 -1 1001.7 998.2
08 17.08 ЮЗ 7
{10}
н/о н/о +4.1 +0.3 76 -2 -2 1002.1 998.6
09 17.08 ЮЗ 7
{9}
60 км {дождь} 8/6 600 м
[Sc Ac lent Ci fib]
+4.9 +0.5 73 -0 -0 1002.5 998.9
10 17.08 ЮЗ 7
{11}
н/о н/о +4.7 +0.3 73 -1 -1 1002.9 999.4
11 17.08 ЮЗ 8
{10}
н/о н/о +4.7 +0.4 74 -1 -1 1003.4 999.8
12 17.08 ЮЗ 8
{11}
70 км осадки на расстоянии 9/8 300 м
[Sc Ac trans]
+4.7 +0.8 76 -1 -1 1003.7 1000.2
13 17.08 ЮЗ 8
{11}
н/о н/о +4.6 +0.2 73 -1 -1 1004.0 1000.5
14 17.08 ЮЗ 8
{12}
н/о н/о +4.6 +0.4 74 -1 -1 1004.2 1000.6
15 17.08 ЮЗ 8
{11}
60 км слаб. дождь 9/9 300 м
[Sc]
+4.4 +0.3 75 -2 -2 1004.3 1000.7
16 17.08 ЮЗ 8
{12}
н/о н/о +4.5 +0.7 76 -1 -1 1004.4 1000.8
17 17.08 ЮЗ 5
{12}
н/о н/о +4.2 +1.3 81 -1 -1 1004.8 1001.2
18 17.08 ЮЗ 7
{12}
60 км слаб. дождь 9/9 300 м
[Sc]
+3.8 +1.3 84 -2 -2 1005.0 1001.5 +3.8 +5.4
19 17.08 ЮЗ 8
{12}
н/о н/о +3.8 +0.6 80 -2 -2 1005.1 1001.6
20 17.08 ЮЗ 6
{11}
н/о н/о +3.8 +0.9 81 -2 -2 1005.3 1001.8
21 17.08 ЮЗ 7
{11}
55 км дождь {морось} 9/9 200 м
[Sc]
+3.4 +1.0 84 -3 -3 1005.7 1002.1
22 17.08 ЮЗ 5
{10}
н/о н/о +3.3 +0.8 84 -2 -2 1006.0 1002.5
23 17.08 ЮЗ 6
{9}
н/о н/о +3.5 +0.5 81 -2 -2 1006.4 1002.8
00 18.08 ЮЗ 5
{12}
55 км слаб. дождь {морось} 9/9 200 м
[Sc]
+3.4 +0.4 81 -2 -2 1006.6 1003.1
01 18.08 ЮЗ 5
{8}
н/о н/о +3.1 +0.7 84 -2 -2 1006.8 1003.2
02 18.08 ЮЗ 5
{8}
н/о н/о +3.2 +0.4 82 -2 -2 1006.9 1003.3
03 18.08 ЮЗ 5
{9}
55 км слаб. дождь 9/9 300 м
[Sc]
+3.4 +0.2 80 -2 -2 1006.9 1003.3
04 18.08 ЮЗ 5
{8}
н/о н/о +3.4 +0.5 81 -2 -2 1007.1 1003.5
05 18.08 ЮЗ 4
{8}
н/о н/о +3.9 -0.3 74 -0 -0 1007.3 1003.7
06 18.08 ЮЗ 5
{9}
н/о н/о +4.1 -0.2 74 -1 -1 1007.5 1004.0 +3.0 +4.1
07 18.08 ЮЗ 4
{7}
н/о н/о +4.3 +0.2 75 0 0 1007.8 1004.2
08 18.08 ЮЗ 4
{6}
н/о н/о +4.8 +0.2 72 +1 +1 1007.8 1004.3
09 18.08 З 4
{6}
50 км осадки на расстоянии 9/9 300 м
[Sc]
+5.1 0.0 70 +1 +1 1008.1 1004.5
10 18.08 ЮЗ 4
{5}
н/о н/о +4.7 +1.8 81 +1 +1 1008.2 1004.7
11 18.08 ЮЗ 4
{6}
н/о н/о +5.8 +1.8 75 +2 +2 1008.4 1004.9
12 18.08 ЮЗ 4
{7}
70 км {дождь} 8/8 300 м
[Cu Sc Ac trans]
+5.4 +0.8 72 +2 +2 1008.5 1005.0
13 18.08 З 4
{6}
н/о н/о +5.3 +1.4 76 +1 +1 1008.6 1005.1
14 18.08 ЮЗ 4
{6}
н/о н/о +5.2 +1.0 74 +1 +1 1008.7 1005.2
15 18.08 З 3
{5}
>70 км 9/9 300 м
[Cu Sc]
+5.4 +1.2 74 +2 +2 1008.7 1005.2
16 18.08 З 3
{5}
н/о н/о +5.0 +0.8 74 +2 +2 1009.0 1005.4
17 18.08 ЮЗ 3
{5}
н/о н/о +5.2 +1.3 76 +2 +2 1009.0 1005.5
18 18.08 З 3
{6}
н/о н/о +4.9 +1.0 76 +2 +2 1009.0 1005.5 +4.2 +6.2
19 18.08 ЮЗ 3
{4}
н/о н/о +4.8 +1.2 77 +1 +1 1009.3 1005.7
20 18.08 ЮЗ 1
{3}
н/о н/о +4.6 +1.0 77 +3 +3 1009.4 1005.9
21 18.08 В 2
{2}
65 км {дождь} 9/9 300 м
[Sc]
+4.0 +1.9 86 +1 +1 1009.5 1006.0
22 18.08 ЮВ 2
{2}
н/о н/о +3.9 +2.1 88 +1 +1 1009.7 1006.1
23 18.08 ЮВ 2
{2}
н/о н/о +3.8 +2.2 89 +1 +1 1009.8 1006.2
00 19.08 В 2
{4}
50 км слаб. дождь 9/9 300 м
[Sc]
+3.6 +2.0 89 +1 +1 1009.9 1006.3
01 19.08 ЮВ 3
{3}
н/о н/о +3.4 +2.0 91 -1 -1 1009.8 1006.2
02 19.08 штиль 0
{3}
н/о н/о +3.4 +0.6 82 +2 +2 1009.8 1006.3
03 19.08 В 3
{3}
40 км {дождь} 8/8 300 м
[Sc]
+3.9 +2.2 89 0 0 1009.9 1006.4
05 19.08 ЮВ 3
{6}
н/о н/о +4.3 -0.1 73 +1 +1 1009.6 1006.0
06 19.08 ЮВ 4
{6}
40 км осадки на расстоянии 8/8 300 м
[Sc]
+4.4 -0.9 68 0 +1 1009.8 1006.2 +3.1 +5.0 0.5
07 19.08 В 4
{6}
н/о н/о +4.5 -0.7 69 +1 +1 1009.9 1006.3

 

Местоположение метеостанции Свальбард аэропорт (Норвегия): широта 78.25 долгота 15.50 высота над уровнем моря 28 м.

В архиве по умолчанию представлена погода в Свальбард аэропорту за последнюю неделю. Архивные данные за месяц целиком и за предыдущие месяцы, начиная с января 2011 года, Вы можете получить, выбрав интересующий диапазон дат из раскрывающегося списка и нажав кнопку "Ввод!".


*Определитесь, кто Вы:
робот инопланетянин человек

Внимание! Время в таблицах - всемирное. Для получения местного времени необходимо прибавить поправку, которая равна 1 ч.

Смотрите также архив погоды в соседних городах и на ближайших метеорологических станциях:

Погода в Баренцбурге (Шпицберген, Россия) (35 км)
Погода в Пирамиде (Норвегия) (49 км)
Погода на Акселойа (Норвегия) (66 км)
Погода в Ню-Олесунн (Норвегия) (108 км)
Погода на Хорнсунне (Норвегия) (139 км)
Погода на Эдже (Норвегия) (166 км)
Погода на Сёркаппёйа (Норвегия) (199 км)
Погода на Верлегенхукен (Норвегия) (201 км)
Погода в Хопене (Норвегия) (301 км)
Погода на Конгсёйа (Норвегия) (303 км)

Пояснения к столбцам:

Ветер - указаны скорость ветра в м/с - средняя за 10 мин, порывы в срок и между сроками (в фигурных скобках) и направление, откуда дует ветер: С - северный, СВ - северо-восточный, В - восточный, ЮВ - юго-восточный, Ю - южный, ЮЗ - юго-западный, З - западный, СЗ - северо-западный.
Видимость - горизонтальная дальность видимости в метрах или километрах. При видимости от 1 до 10 км при отсутствии осадков обычно наблюдается дымка, при ухудшении видимости до 1 км и менее - туман. В сухую погоду видимость может ухудшаться дымом, пылью или мглою.
Явления - указаны атмосферные явления, наблюдавшиеся в срок или в последний час перед сроком; фигурными скобками обозначены явления, наблюдавшиеся между сроками (за 1-3 часа до срока); квадратными скобками обозначены град или гололедные отложения с указанием их диаметра в мм.
Облачность - указаны через наклонную черту общая и нижняя облачность в баллах и высота нижней границы облаков в метрах; квадратными скобками обозначены формы облаков: Ci - перистые, Cs - перисто-слоистые, Cc - перисто-кучевые, Ac - высококучевые, As - высокослоистые, Sc - слоисто-кучевые, Ns - слоисто-дождевые, Cu - кучевые, Cb - кучево-дождевые. Подробнее классификацию облаков см. в Атласе облаков (PDF).
T - Температура воздуха - температура, измеренная на высоте 2 м над землей.
Td - Температура точки росы - температура, при понижении до которой содержащийся в воздухе водяной пар достигнет насыщения.
f - Относительная влажность воздуха - влажноcть воздуха, измеренная на высоте 2 м над землей.
Te - Эффективная температура - температура, которую ощущает одетый по сезону человек в тени. Характеристика душности погоды. При расчете учитывается влияние влажности воздуха и скорости ветра на теплоощущения человека.
Tes - Эффективная температура на солнце - температура, которую ощущает человек, с поправкой на солнечный нагрев. Характеристика знойности погоды. Зависит от высоты солнца над горизонтом, облачности и скорости ветра. Ночью, в пасмурную погоду, а также при ветре 12 м/с и более поправка равна нулю.
P - Атмосферное давление - приведенное к уровню моря атмосферное давление.
Po - Атмосферное давление - измеренное на уровне метеостанции атмосферное давление.
Tmin - Минимальная температура - минимум температуры воздуха на высоте 2 м над землей.
Tmax - Максимальная температура - максимум температуры воздуха на высоте 2 м над землей.
R - Количество осадков - Количество выпавших осадков за период времени, мм. При наведении курсора мыши на число - период времени, за который выпало указанное количество осадков.
R24 - Количество осадков - Количество выпавших осадков за 24 часа, мм.
S - Снежный покров - Высота снежного покрова, см. При наведении курсора мыши на число - состояние снежного покрова и степень покрытия местности в баллах.